Sault Sainte Marie, MI

4:09 AM EST on February 13, 2016 (GMT -0500)
Sault Ste Marie Municipal / Sanderson Field

Weather History for KANJ - February, 2013

Change the Weather History Date:

Wednesday, February 27, 2013

  Actual Average Record
Temperature  
Mean Temperature 33 °F 20 °F  
Max Temperature 37 °F 29 °F 46 °F (1895)
Min Temperature 28 °F 12 °F -24 °F (1934)
Degree Days  
Heating Degree Days 32 45  
Month to date heating degree days 1310 1282  
Since 1 July heating degree days 5693 6082  
Moisture  
Dew Point 24 °F    
Average Humidity 75    
Maximum Humidity 85    
Minimum Humidity 64    
Precipitation  
Precipitation 0.03 in 0.05 in 0.66 in (1971)
Month to date precipitation 2.80 1.29  
Year to date precipitation 6.09 3.48  
Snow  
Snow 0.20 in 0.60 in 5.60 in (1971)
Month to date snowfall 31.4 18.1  
Since 1 July snowfall 120.8 99.7  
Snow Depth 27.00 in    
Sea Level Pressure  
Sea Level Pressure 29.76 in    
Wind  
Wind Speed 11 mph (NE)    
Max Wind Speed 17 mph    
Max Gust Speed 26 mph    
Visibility 8 miles    
Events Snow    
T = Trace of Precipitation, MM = Missing Value Source: NWS Daily Summary

Daily Weather History Graph

Daily Weather History Graph

Search for Another Location

Airport or City:

Trip Planner

Search our weather history database for the weather conditions in past years. The results will help you decide how hot, cold, wet, or windy it might be!

Date:

Astronomy

Feb. 27, 2013 Rise Set
Actual Time 7:19 AM EST 6:20 PM EST
Civil Twilight 6:49 AM EST 6:51 PM EST
Nautical Twilight 6:14 AM EST 7:26 PM EST
Astronomical Twilight 5:39 AM EST 8:01 PM EST
Moon 8:53 PM EST (2/27) 7:45 AM EST (2/27)
Length of Visible Light 12h 01m
Length of Day
11h 01m
Waning Gibbous, 96% of the Moon is Illuminated
Feb 27
Waning Gibbous
Mar 4
Last Quarter
Mar 11
New
Mar 19
First Quarter
Mar 27
Full

Hourly Weather History & Observations

Time (EST) Temp. Windchill Dew Point Humidity Pressure Visibility Wind Dir Wind Speed Gust Speed Precip Events Conditions
12:55 AM 28.9 °F 19.8 °F 21.0 °F 72% 29.87 in 10.0 mi ENE 10.4 mph - N/A   Clear
1:55 AM 28.9 °F 19.8 °F 21.0 °F 72% 29.84 in 10.0 mi ENE 10.4 mph - N/A   Clear
2:55 AM 28.9 °F 19.8 °F 21.0 °F 72% 29.82 in 10.0 mi NE 10.4 mph 19.6 mph N/A   Clear
3:55 AM 28.9 °F 18.6 °F 21.0 °F 72% 29.79 in 10.0 mi ENE 12.7 mph 18.4 mph N/A   Clear
4:55 AM 30.0 °F 20.0 °F 21.9 °F 72% 29.78 in 10.0 mi NE 12.7 mph 20.7 mph N/A   Overcast
5:55 AM 30.0 °F 21.1 °F 21.9 °F 72% 29.78 in 10.0 mi NE 10.4 mph - N/A   Overcast
6:38 AM 30.0 °F 23.2 °F 21.9 °F 72% 29.76 in 10.0 mi NE 6.9 mph - N/A   Overcast
6:55 AM 30.0 °F 21.1 °F 21.9 °F 72% 29.78 in 10.0 mi NE 10.4 mph 17.3 mph N/A   Overcast
7:31 AM 30.9 °F 21.7 °F 21.9 °F 69% 29.76 in 10.0 mi NE 11.5 mph - N/A   Overcast
7:45 AM 30.0 °F 20.5 °F 23.0 °F 75% 29.76 in 2.0 mi ENE 11.5 mph 20.7 mph 0.00 in Snow Light Snow
7:52 AM 30.0 °F 20.5 °F 23.0 °F 75% 29.79 in 0.8 mi NE 11.5 mph 20.7 mph 0.01 in Snow Light Snow
8:18 AM 30.0 °F 21.7 °F 24.1 °F 79% 29.76 in 1.5 mi NE 9.2 mph 17.3 mph 0.00 in Snow Light Snow
8:28 AM 30.0 °F 21.1 °F 24.1 °F 79% 29.76 in 3.0 mi NE 10.4 mph 19.6 mph 0.01 in Snow Light Snow
8:39 AM 30.9 °F 21.7 °F 23.0 °F 72% 29.75 in 9.0 mi NE 11.5 mph 18.4 mph 0.01 in   Overcast
8:55 AM 32.0 °F 24.2 °F 23.0 °F 69% 29.77 in 8.0 mi ENE 9.2 mph 19.6 mph 0.01 in Snow Light Snow
9:09 AM 30.9 °F 22.8 °F 24.1 °F 76% 29.76 in 1.8 mi ENE 9.2 mph 24.2 mph 0.00 in Snow Light Snow
9:20 AM 30.9 °F 20.7 °F 25.0 °F 79% 29.76 in 1.5 mi NE 13.8 mph 24.2 mph 0.00 in Snow Light Snow
9:55 AM 30.9 °F 21.7 °F 26.1 °F 82% 29.78 in 2.0 mi ENE 11.5 mph 21.9 mph 0.00 in Snow Light Snow
10:05 AM 32.0 °F 23.6 °F 25.0 °F 75% 29.75 in 5.0 mi ENE 10.4 mph 18.4 mph 0.00 in Snow Light Snow
10:13 AM 32.0 °F 22.5 °F 25.0 °F 75% 29.74 in 6.0 mi NE 12.7 mph - 0.00 in Snow Light Snow
10:35 AM 33.1 °F 24.4 °F 25.0 °F 72% 29.74 in 10.0 mi NE 11.5 mph 25.3 mph 0.00 in   Overcast
10:55 AM 34.0 °F 26.6 °F 25.0 °F 70% 29.75 in 10.0 mi ENE 9.2 mph 24.2 mph 0.00 in   Overcast
11:38 AM 34.0 °F 26.0 °F 26.1 °F 73% 29.73 in 2.0 mi NE 10.4 mph 18.4 mph 0.00 in Snow Light Snow
11:45 AM 33.1 °F 24.4 °F 27.0 °F 78% 29.73 in 1.8 mi ENE 11.5 mph 21.9 mph 0.00 in Snow Light Snow
11:55 AM 33.1 °F 24.9 °F 27.0 °F 78% 29.75 in 1.8 mi ENE 10.4 mph 19.6 mph 0.01 in Snow Light Snow
12:13 PM 34.0 °F 28.0 °F 27.0 °F 75% 29.73 in 3.0 mi Variable 6.9 mph 21.9 mph 0.00 in Snow Light Snow
12:52 PM 35.6 °F 27.1 °F 24.8 °F 65% 29.72 in 10.0 mi ENE 12.7 mph 21.9 mph 0.00 in   Overcast
12:55 PM 35.1 °F 25.9 °F 25.0 °F 67% 29.74 in 10.0 mi ENE 13.8 mph 23.0 mph 0.00 in   Overcast
1:02 PM 35.1 °F 26.4 °F 25.0 °F 67% 29.72 in 10.0 mi ENE 12.7 mph 23.0 mph N/A   Overcast
1:55 PM 36.0 °F 27.1 °F 25.0 °F 64% 29.73 in 10.0 mi ENE 13.8 mph 23.0 mph N/A   Overcast
2:10 PM 36.0 °F 28.0 °F 25.0 °F 64% 29.70 in 10.0 mi ENE 11.5 mph - N/A   Overcast
2:55 PM 36.0 °F 28.5 °F 25.0 °F 64% 29.73 in 10.0 mi ENE 10.4 mph 19.6 mph N/A   Overcast
3:55 PM 37.0 °F 29.3 °F 26.1 °F 65% 29.73 in 10.0 mi NE 11.5 mph 20.7 mph N/A   Overcast
4:55 PM 36.0 °F 28.0 °F 26.1 °F 67% 29.74 in 10.0 mi NE 11.5 mph 23.0 mph N/A   Overcast
5:27 PM 36.0 °F 26.7 °F 26.1 °F 67% 29.72 in 10.0 mi NE 15.0 mph 23.0 mph N/A   Overcast
5:55 PM 35.1 °F 26.9 °F 25.0 °F 67% 29.75 in 10.0 mi NE 11.5 mph 24.2 mph N/A   Overcast
6:55 PM 35.1 °F 26.4 °F 26.1 °F 70% 29.76 in 10.0 mi NE 12.7 mph 20.7 mph N/A   Overcast
7:55 PM 35.1 °F 26.4 °F 26.1 °F 70% 29.76 in 10.0 mi ENE 12.7 mph 20.7 mph N/A   Overcast
8:55 PM 35.1 °F 27.9 °F 26.1 °F 70% 29.76 in 10.0 mi NE 9.2 mph - 0.00 in   Overcast
9:55 PM 35.1 °F 27.4 °F 26.1 °F 70% 29.76 in 10.0 mi NE 10.4 mph 18.4 mph 0.00 in   Overcast
10:55 PM 34.0 °F 26.6 °F 26.1 °F 73% 29.77 in 10.0 mi NNE 9.2 mph - N/A   Overcast
11:55 PM 34.0 °F 25.0 °F 26.1 °F 73% 29.76 in 10.0 mi NNE 12.7 mph 19.6 mph 0.00 in   Overcast